Tracking 29892 objects as of 21-Nov-2024
HD Live streaming from Space Station
objects crossing your sky now

STARLINK-30593

Track STARLINK-30593 now!
10-day predictions
STARLINK-30593 is classified as:


NORAD ID: 58112
Int'l Code: 2023-161R
Perigee: 481.6 km
Apogee: 483.1 km
Inclination: 53.2 °
Period: 94.1 minutes
Semi major axis: 6853 km
RCS: Unknown
Launch date: October 21, 2023
Source: United States (US)
Launch site: AIR FORCE WESTERN TEST RANGE (AFWTR)
Your satellite tracking list
Your tracking list is empty




NASA's NSSDC Master Catalog

Two Line Element Set (TLE):
1 58112U 23161R   24325.65793197  .00001118  00000-0  49876-4 0  9992
2 58112  53.1597 207.4758 0001068  86.8003 273.3120 15.30196962 61841
Source of the keplerian elements: AFSPC